Terug naar catalogus

SL-16 DEB

ActiefLEO
NORAD 22423·DEBRIS·🇷🇺 Russia

Gelanceerd Dec 25, 1992 vanaf Baikonur Cosmodrome

Loading…

Volgende Passages (komende 24 uur)

TLE

VersSource: Space-Track

Epoch: Sep 14, 2026, 10:19 UTC

1 22423U 92093DQ  26257.43038817  .00000012  00000-0  38517-4 0  9993
2 22423  71.2795  54.9933 0098401 154.8409 205.7547 13.95527003714111

Volg SL-16 DEB in realtime met AllMySat

Download on the App Store